Location: Rehoboth Beach
(38.7438°N, 75.1341°W)
Time: 11:16:12
(UTC-04:00)

Hubble Space Telescope - Visible Passes

Search period start: 29 September 2016 00:00
Search period end: 09 October 2016 00:00
Orbit: 539 x 542 km, 28.5° (Epoch: 28 September)

Date Brightness Start Highest point End Pass type
(mag) Time Alt. Az. Time Alt. Az. Time Alt. Az.
06 Oct 3.1 19:29:19 10° S 19:30:04 10° SSE 19:30:51 10° SSE visible
07 Oct 3.0 19:18:23 10° S 19:20:08 12° SSE 19:21:51 10° SE visible
07 Oct 3.5 20:57:41 10° SW 20:58:01 11° SW 20:58:01 11° SW visible
08 Oct 3.0 19:07:58 10° SSW 19:10:10 14° SSE 19:12:24 10° SE visible
08 Oct 3.2 20:47:45 10° SW 20:48:47 14° SW 20:48:47 14° SW visible
